[[{"header":{"parameterUnit":"m.s-1","parameterCategory":1,"la1":30.2991,"la2":30.254,"lo1":-89.0895,"lo2":-89.0444,"dy":0.0017,"dx":0.0017,"nx":28,"ny":28,"refTime":"2025-04-07T21:00:00:Z","depth":0,"parameterNumber":2,"parameterNumberName":"U-component_of_WINDS"},"data":[0,0,0,0,0,0,0,0,0,0,0,0,0,0,0,0,0,0,0,0,0,0,0,0,0,0,0,0,0,0,0,0,0,0,0,0,0,0,0,0,0,0,0,0,0,0,0,0,0,0,0,0,0,0,0,0,0,0,0.5651,0.5653,0,0.5775,0.5776,0.5777,0.5841,0.5841,0.5841,0.5841,0.5971,0.5974,0.5977,0,0,0,0,0,0,0,0,0,0,0,0,0,0.5473,0.5476,0.5651,0.5653,0.5654,0.5774,0.5776,0.5778,0.5841,0.5841,0.5841,0.5842,0.597,0.5974,0.5978,0,0,0,0,0,0,0,0,0,0,0,0,0,0.5569,0.5477,0.5651,0.57,0.5706,0.5774,0.5776,0.5778,0.5841,0.5841,0.5841,0.5842,0.5968,0.5973,0.5978,0.6008,0,0,0.5994,0.5996,0,0,0,0,0,0,0,0,0.5563,0.5575,0.5692,0.5697,0.5703,0.5793,0.5761,0.5855,0.5841,0.579,0.5841,0.5842,0.5912,0.5921,0.5944,0.6014,0.6019,0.5994,0.5997,0.6,0.6001,0,0,0,0,0,0,0,0.5557,0.557,0.57,0.5693,0.57,0.5717,0.5731,0.5779,0.5849,0.5794,0.5799,0.5813,0.5915,0.5939,0.5948,0.6021,0.5994,0.5999,0.6002,0.6004,0.6121,0.6121,0,0,0,0,0,0,0.5542,0.5564,0.5696,0.5704,0.5632,0.572,0.5736,0.5764,0.5848,0.5861,0.5813,0.5815,0.5931,0.5942,0.5953,0.5993,0.5999,0.6004,0.6007,0.612,0.6121,0.6121,0,0,0,0,0,0,0.5537,0.5553,0.5691,0.5635,0.5654,0.5723,0.5755,0.5766,0.5791,0.5862,0.5875,0.5825,0.5931,0.5946,0.5993,0.5998,0.6007,0.6011,0.612,0.6121,0.6121,0.6072,0,0,0,0,0,0,0.5532,0.5551,0.5562,0.5635,0.5657,0.5729,0.5755,0.5769,0.5799,0.5804,0.5877,0.5889,0.5932,0.5985,0.5998,0.6005,0.6015,0.612,0.612,0.6121,0.6074,0.607,0.6068,0,0,0,0,0,0.5525,0.5544,0.5562,0.5578,0.5672,0.5729,0.5742,0.579,0.5799,0.5811,0.5857,0.5887,0.5995,0.599,0.6005,0.6013,0.612,0.612,0.6121,0.6075,0.6071,0.6068,0,0,0,0,0,0,0.5471,0.5555,0.5576,0.5619,0.5666,0.5739,0.5757,0.5785,0.5831,0.5834,0.5893,0.5909,0.5951,0.5987,0.5979,0.6046,0.6061,0.6064,0.6021,0.6018,0.6015,0.6006,0.6019,0,0,0,0,0,0.5464,0.5502,0.5573,0.5604,0.5627,0.5687,0.5714,0.5747,0.5799,0.582,0.5869,0.5919,0.5964,0.5993,0.6039,0.6079,0.6096,0.6092,0.6089,0.6086,0.6089,0.6112,0.6112,0.6121,0.6121,0.6121,0,0,0.545,0.55,0.5521,0.5594,0.5635,0.5674,0.5704,0.5744,0.5773,0.5826,0.5874,0.5911,0.5971,0.6015,0.6037,0.6046,0.609,0.6087,0.6084,0.6088,0.6112,0.6111,0.6111,0.6121,0.6121,0.6121,0,0,0.5444,0.5485,0.5515,0.5555,0.5616,0.5656,0.5663,0.5733,0.5759,0.5808,0.5848,0.5885,0.5961,0.6002,0.6033,0.6042,0.6071,0.6055,0.604,0.6062,0.6062,0.6061,0.6064,0.6065,0.6057,0.6057,0.6057,0,0.5419,0.5478,0.5528,0.5565,0.5596,0.5645,0.5676,0.5713,0.5785,0.5806,0.5816,0.5913,0.5956,0.601,0.6012,0.6036,0.6046,0.6047,0.6058,0.6058,0.6058,0.6062,0.6063,0.6054,0.6055,0.6055,0.6055,0,0.5444,0.5484,0.5501,0.5569,0.5603,0.5637,0.5693,0.572,0.575,0.579,0.5838,0.5892,0.595,0.5965,0.5995,0.6023,0.6027,0.6046,0.6062,0.6054,0.6058,0.606,0.6051,0.6052,0.6053,0.6053,0,0,0.5408,0.5502,0.5507,0.5539,0.5609,0.5642,0.5678,0.5733,0.5756,0.5804,0.5836,0.59,0.5918,0.5953,0.5988,0.6007,0.601,0.6024,0.6027,0.602,0.6045,0.603,0.603,0.603,0.603,0.6031,0.6039,0,0.5412,0.5478,0.5524,0.5573,0.5611,0.5657,0.5689,0.5735,0.5773,0.5811,0.5853,0.5897,0.5917,0.5938,0.596,0.6005,0.6016,0.6005,0.6061,0.6062,0.6044,0.6033,0.6017,0.6023,0.6041,0.6042,0.6042,0,0.5425,0.5471,0.5523,0.5589,0.5606,0.5634,0.5688,0.5724,0.5778,0.5804,0.5842,0.5878,0.5919,0.5931,0.5988,0.598,0.6005,0.6031,0.6032,0.604,0.6052,0.604,0.6026,0.6027,0.6045,0.6045,0.6045,0,0.5393,0.5468,0.5509,0.5534,0.5612,0.563,0.5663,0.5718,0.5748,0.5795,0.5815,0.5867,0.5895,0.5935,0.5984,0.5988,0.6036,0.6052,0.6059,0.6058,0.6067,0.6066,0.6058,0.6083,0.6083,0.6083,0.6083,0,0.5393,0.5423,0.5495,0.552,0.5556,0.5608,0.5642,0.5679,0.5727,0.5761,0.5804,0.5835,0.5898,0.5936,0.5975,0.6017,0.6029,0.6052,0.6062,0.6048,0.6045,0.6066,0.6066,0.6084,0.6084,0.6083,0.6083,0,0.5363,0.5413,0.546,0.5529,0.5548,0.557,0.563,0.5657,0.5696,0.5738,0.5751,0.5813,0.5861,0.5913,0.5979,0.6005,0.6044,0.6059,0.6026,0.6031,0.6035,0.6034,0.604,0.6043,0.6066,0.6066,0.6065,0,0.536,0.5384,0.5455,0.548,0.5512,0.5552,0.5582,0.5635,0.5665,0.5728,0.5747,0.5798,0.5841,0.5915,0.5967,0.6017,0.6033,0.6032,0.6041,0.6026,0.6033,0.6031,0.6034,0.6029,0.6028,0.6028,0.6027,0,0.5348,0.5371,0.5413,0.5463,0.5498,0.554,0.5584,0.5602,0.5664,0.5696,0.5744,0.5778,0.5844,0.5894,0.595,0.5986,0.6017,0.6024,0.6028,0.6014,0.5994,0.6005,0.6018,0.6024,0.6024,0.6024,0.6025,0.6025,0.5332,0.5355,0.5408,0.5453,0.5492,0.5532,0.556,0.5602,0.5643,0.5701,0.573,0.5778,0.5832,0.591,0.5945,0.5984,0.5994,0.6,0.6001,0.6002,0.5998,0.5987,0.5994,0.5994,0.5995,0.5995,0.5995,0,0.5322,0.5359,0.5399,0.5459,0.5494,0.5519,0.5569,0.5598,0.5639,0.5686,0.5727,0.5783,0.5831,0.5886,0.5938,0.5959,0.5974,0.5971,0.597,0.5977,0.5987,0.5978,0.5957,0.5957,0.5957,0.5957,0.5957,0.5957,0.5321,0.5362,0.5391,0.5452,0.5489,0.5535,0.5562,0.5599,0.5637,0.5696,0.5736,0.5771,0.5822,0.5878,0.5923,0.5938,0.5955,0.5947,0.5966,0.5974,0.5977,0.598,0.5972,0.595,0.595,0.5954,0.5954,0.5954]},{"header":{"parameterUnit":"m.s-1","parameterCategory":1,"la1":30.2991,"la2":30.254,"lo1":-89.0895,"lo2":-89.0444,"dy":0.0017,"dx":0.0017,"nx":28,"ny":28,"refTime":"2025-04-07T21:00:00:Z","depth":0,"parameterNumber":3,"parameterNumberName":"V-component_of_WINDS"},"data":[0,0,0,0,0,0,0,0,0,0,0,0,0,0,0,0,0,0,0,0,0,0,0,0,0,0,0,0,0,0,0,0,0,0,0,0,0,0,0,0,0,0,0,0,0,0,0,0,0,0,0,0,0,0,0,0,0,0,1.636,1.6359,0,1.6311,1.6311,1.631,1.6306,1.6306,1.6307,1.6307,1.6254,1.6252,1.625,0,0,0,0,0,0,0,0,0,0,0,0,0,1.6444,1.6443,1.636,1.6359,1.6359,1.6311,1.6311,1.631,1.6306,1.6306,1.6307,1.6308,1.6255,1.6252,1.625,0,0,0,0,0,0,0,0,0,0,0,0,0,1.6403,1.6442,1.636,1.6351,1.635,1.6311,1.6311,1.631,1.6306,1.6306,1.6307,1.6308,1.6255,1.6252,1.625,1.6216,0,0,1.6241,1.624,0,0,0,0,0,0,0,0,1.6405,1.64,1.6353,1.6352,1.635,1.6316,1.6321,1.6278,1.6305,1.6322,1.6307,1.6308,1.6274,1.6269,1.6258,1.6214,1.6211,1.6241,1.6239,1.6238,1.6237,0,0,0,0,0,0,0,1.6408,1.6402,1.6341,1.6352,1.635,1.6348,1.6343,1.6313,1.6294,1.6321,1.632,1.6315,1.6273,1.6261,1.6257,1.6211,1.6241,1.6238,1.6236,1.6235,1.6132,1.6131,0,0,0,0,0,0,1.6413,1.6404,1.6342,1.6339,1.638,1.6346,1.634,1.6326,1.6294,1.629,1.6314,1.6315,1.6266,1.626,1.6255,1.6211,1.6238,1.6235,1.6233,1.6133,1.6132,1.6131,0,0,0,0,0,0,1.6415,1.6408,1.6344,1.6372,1.6363,1.6343,1.6327,1.6324,1.6313,1.6289,1.6286,1.6306,1.6266,1.6259,1.6225,1.6209,1.6234,1.6231,1.6135,1.6133,1.6132,1.6125,0,0,0,0,0,0,1.6418,1.6409,1.6397,1.6371,1.6362,1.6317,1.6326,1.6323,1.6308,1.6308,1.628,1.6277,1.6266,1.623,1.6222,1.6206,1.6229,1.6136,1.6134,1.6132,1.6126,1.6123,1.6121,0,0,0,0,0,1.6421,1.6397,1.6396,1.6389,1.6347,1.6316,1.631,1.63,1.6307,1.6294,1.6278,1.6277,1.6213,1.6226,1.6218,1.62,1.6137,1.6134,1.6132,1.6128,1.6124,1.6121,0,0,0,0,0,0,1.642,1.6393,1.6393,1.636,1.634,1.6315,1.6299,1.6296,1.6273,1.6275,1.6261,1.6255,1.6221,1.6208,1.6223,1.6165,1.6175,1.6171,1.6175,1.6171,1.6168,1.6171,1.6226,0,0,0,0,0,1.6417,1.6395,1.6372,1.6346,1.6336,1.6319,1.6305,1.6299,1.6277,1.6268,1.6251,1.6229,1.6203,1.6186,1.6162,1.6125,1.6117,1.6108,1.6106,1.6103,1.6099,1.6076,1.6071,1.6124,1.6124,1.6124,0,0,1.6409,1.6391,1.6378,1.6345,1.6329,1.6305,1.6312,1.6287,1.6268,1.6264,1.6231,1.6217,1.6191,1.6155,1.6138,1.6143,1.6083,1.6101,1.6099,1.6096,1.6073,1.6068,1.6063,1.6122,1.6122,1.6123,0,0,1.6381,1.6367,1.6342,1.6326,1.6301,1.629,1.6284,1.6259,1.6249,1.6216,1.6212,1.6188,1.6146,1.6126,1.6111,1.6074,1.6071,1.6067,1.6051,1.6028,1.6024,1.602,1.6004,1.5999,1.6063,1.6063,1.6063,0,1.6374,1.6339,1.633,1.6304,1.6288,1.6284,1.6257,1.6241,1.621,1.6198,1.6204,1.6148,1.6131,1.6088,1.6079,1.6068,1.6058,1.6069,1.6026,1.6022,1.6018,1.6002,1.5997,1.6063,1.6063,1.6063,1.6063,0,1.633,1.6305,1.6288,1.6258,1.624,1.6214,1.6199,1.6182,1.6176,1.6163,1.6128,1.6107,1.6076,1.6066,1.6061,1.6022,1.6025,1.6029,1.6039,1.6012,1.5997,1.5992,1.6062,1.6062,1.6062,1.6062,0,0,1.6301,1.6265,1.6259,1.6244,1.6216,1.6195,1.6168,1.6139,1.6123,1.6101,1.6076,1.6039,1.6041,1.6024,1.6016,1.5996,1.5964,1.6001,1.6,1.5993,1.5917,1.5913,1.5907,1.5963,1.5962,1.5961,1.5918,0,1.6269,1.6221,1.6211,1.6169,1.6144,1.6139,1.6115,1.6093,1.608,1.6056,1.6041,1.6014,1.6021,1.6009,1.599,1.5973,1.5949,1.5976,1.5937,1.5935,1.5941,1.5899,1.5896,1.5857,1.5913,1.5912,1.5911,0,1.6225,1.6202,1.6158,1.613,1.6119,1.6098,1.6069,1.6047,1.6022,1.6013,1.5993,1.5987,1.5955,1.5968,1.5923,1.5941,1.5925,1.5914,1.5912,1.5906,1.592,1.589,1.5844,1.5837,1.5902,1.5903,1.5904,0,1.6206,1.6164,1.6131,1.6118,1.6086,1.6071,1.6056,1.6032,1.6014,1.5989,1.5976,1.5947,1.5931,1.5907,1.5892,1.5903,1.5847,1.5859,1.5837,1.5837,1.5824,1.5825,1.5772,1.5817,1.5817,1.5817,1.5818,0,1.617,1.6142,1.6121,1.6101,1.6068,1.6056,1.6024,1.6009,1.5987,1.5962,1.5956,1.5932,1.5915,1.5888,1.5876,1.5838,1.5832,1.5822,1.5819,1.5821,1.5822,1.5809,1.581,1.5816,1.5816,1.5817,1.5817,0,1.6142,1.6128,1.6091,1.6063,1.6055,1.6033,1.6008,1.5986,1.5973,1.5941,1.5933,1.5911,1.5878,1.5861,1.5821,1.5813,1.577,1.577,1.5779,1.5777,1.5754,1.5756,1.569,1.5679,1.5733,1.5733,1.5733,0,1.612,1.6098,1.6068,1.6051,1.6036,1.6009,1.5991,1.5977,1.5957,1.5926,1.5907,1.5875,1.5848,1.5796,1.5776,1.5744,1.5741,1.572,1.5736,1.5738,1.5737,1.5738,1.5734,1.5717,1.5716,1.5716,1.5715,0,1.608,1.6073,1.6047,1.6018,1.5996,1.5973,1.5949,1.5935,1.5917,1.5895,1.5862,1.5842,1.58,1.5766,1.5733,1.5716,1.5711,1.5711,1.5703,1.5704,1.5709,1.5704,1.5768,1.5712,1.5712,1.5712,1.5713,1.5713,1.6052,1.6031,1.6006,1.5977,1.5957,1.5935,1.5913,1.5896,1.5869,1.5834,1.5827,1.5792,1.5764,1.5718,1.57,1.5671,1.5675,1.5665,1.5662,1.5659,1.5656,1.5716,1.5665,1.5665,1.5665,1.5665,1.5665,0,1.6009,1.5992,1.5966,1.5933,1.5909,1.5908,1.5881,1.5861,1.583,1.5805,1.5778,1.5739,1.5706,1.5682,1.5648,1.5629,1.5625,1.562,1.562,1.5615,1.5656,1.5665,1.5623,1.5623,1.5623,1.5623,1.5623,1.5623,1.5984,1.5948,1.5938,1.5891,1.5874,1.584,1.5824,1.5802,1.5782,1.5739,1.5711,1.5696,1.5671,1.5634,1.5603,1.5597,1.5583,1.5577,1.557,1.5609,1.5613,1.5617,1.5625,1.5575,1.5575,1.5531,1.5531,1.5531]}]]